Time,TemperatureF,DewpointF,PressureIn,WindDirection,WindDirectionDegrees,WindSpeedMPH,WindSpeedGustMPH,Humidity,HourlyPrecipIn,Conditions,Clouds,dailyrainin,SoftwareType,DateUTC
2013-02-03 00:04:00,15.8,11.3,29.78,SW,225,8.9,-999.0,82,-99.99,,,0.00,Acu-Link.com,2013-02-03 05:04:00,
2013-02-03 00:19:00,15.8,11.3,29.79,SW,225,9.4,-999.0,82,-99.99,,,0.00,Acu-Link.com,2013-02-03 05:19:00,
2013-02-03 00:34:00,15.4,10.6,29.78,West,270,8.9,-999.0,81,-99.99,,,0.00,Acu-Link.com,2013-02-03 05:34:00,
2013-02-03 00:50:00,15.1,10.3,29.78,WNW,292,5.8,-999.0,81,-99.99,,,0.00,Acu-Link.com,2013-02-03 05:50:00,
2013-02-03 01:05:00,15.1,10.1,29.76,SW,225,8.3,-999.0,80,-99.99,,,0.00,Acu-Link.com,2013-02-03 06:05:00,
2013-02-03 01:20:00,14.5,9.2,29.76,West,270,5.8,-999.0,79,-99.99,,,0.00,Acu-Link.com,2013-02-03 06:20:00,
2013-02-03 01:36:00,14.4,9.4,29.75,WSW,247,4.2,-999.0,80,-99.99,,,0.00,Acu-Link.com,2013-02-03 06:36:00,
2013-02-03 01:51:00,13.6,8.6,29.75,West,270,4.7,-999.0,80,-99.99,,,0.00,Acu-Link.com,2013-02-03 06:51:00,
2013-02-03 02:06:00,12.9,7.6,29.75,SSE,157,5.8,-999.0,79,-99.99,,,0.00,Acu-Link.com,2013-02-03 07:06:00,
2013-02-03 02:21:00,12.2,7.0,29.74,WNW,292,4.2,-999.0,79,-99.99,,,0.00,Acu-Link.com,2013-02-03 07:21:00,
2013-02-03 02:37:00,12.2,7.0,29.74,SW,225,8.3,-999.0,79,-99.99,,,0.00,Acu-Link.com,2013-02-03 07:37:00,
2013-02-03 02:52:00,11.8,6.6,29.73,West,270,6.3,-999.0,79,-99.99,,,0.00,Acu-Link.com,2013-02-03 07:52:00,
2013-02-03 03:07:00,11.3,6.1,29.73,WNW,292,4.7,-999.0,79,-99.99,,,0.00,Acu-Link.com,2013-02-03 08:07:00,
2013-02-03 03:23:00,11.1,5.9,29.73,WSW,247,4.2,-999.0,79,-99.99,,,0.00,Acu-Link.com,2013-02-03 08:23:00,
2013-02-03 03:38:00,10.8,5.9,29.73,WNW,292,4.7,-999.0,80,-99.99,,,0.00,Acu-Link.com,2013-02-03 08:38:00,
2013-02-03 03:53:00,10.2,5.6,29.72,West,270,3.7,-999.0,81,-99.99,,,0.00,Acu-Link.com,2013-02-03 08:53:00,
2013-02-03 04:09:00,9.9,5.5,29.72,WSW,247,2.7,-999.0,82,-99.99,,,0.00,Acu-Link.com,2013-02-03 09:09:00,
2013-02-03 04:24:00,9.9,5.5,29.71,West,270,4.2,-999.0,82,-99.99,,,0.00,Acu-Link.com,2013-02-03 09:24:00,
2013-02-03 04:39:00,10.0,5.6,29.71,West,270,5.3,-999.0,82,-99.99,,,0.00,Acu-Link.com,2013-02-03 09:39:00,
2013-02-03 04:54:00,10.8,6.4,29.71,West,270,4.7,-999.0,82,-99.99,,,0.00,Acu-Link.com,2013-02-03 09:54:00,
2013-02-03 05:10:00,10.9,6.2,29.70,WNW,292,5.8,-999.0,81,-99.99,,,0.00,Acu-Link.com,2013-02-03 10:10:00,
2013-02-03 05:25:00,11.1,6.4,29.70,WNW,292,6.3,-999.0,81,-99.99,,,0.00,Acu-Link.com,2013-02-03 10:25:00,
2013-02-03 05:40:00,11.5,6.5,29.70,WNW,292,5.8,-999.0,80,-99.99,,,0.00,Acu-Link.com,2013-02-03 10:40:00,
2013-02-03 05:56:00,11.8,6.6,29.70,WSW,247,2.7,-999.0,79,-99.99,,,0.00,Acu-Link.com,2013-02-03 10:56:00,
2013-02-03 06:11:00,11.8,7.1,29.70,WNW,292,5.3,-999.0,81,-99.99,,,0.00,Acu-Link.com,2013-02-03 11:11:00,
2013-02-03 06:26:00,12.0,7.0,29.69,West,270,4.2,-999.0,80,-99.99,,,0.00,Acu-Link.com,2013-02-03 11:26:00,
2013-02-03 06:42:00,12.4,7.2,29.70,WNW,292,4.2,-999.0,79,-99.99,,,0.00,Acu-Link.com,2013-02-03 11:42:00,
2013-02-03 06:57:00,12.6,7.3,29.69,West,270,8.9,-999.0,79,-99.99,,,0.00,Acu-Link.com,2013-02-03 11:57:00,
2013-02-03 07:12:00,12.7,7.4,29.70,WSW,247,6.8,-999.0,79,-99.99,,,0.00,Acu-Link.com,2013-02-03 12:12:00,
2013-02-03 07:28:00,13.1,8.1,29.71,West,270,4.7,-999.0,80,-99.99,,,0.00,Acu-Link.com,2013-02-03 12:28:00,
2013-02-03 07:43:00,13.1,8.1,29.71,WNW,292,4.7,-999.0,80,-99.99,,,0.00,Acu-Link.com,2013-02-03 12:43:00,
2013-02-03 07:58:00,13.3,8.3,29.72,West,270,5.3,-999.0,80,-99.99,,,0.00,Acu-Link.com,2013-02-03 12:58:00,
2013-02-03 08:13:00,13.3,8.3,29.73,West,270,8.9,-999.0,80,-99.99,,,0.00,Acu-Link.com,2013-02-03 13:13:00,
2013-02-03 08:29:00,13.6,8.9,29.73,West,270,6.8,-999.0,81,-99.99,,,0.00,Acu-Link.com,2013-02-03 13:29:00,
2013-02-03 08:44:00,13.8,9.1,29.73,West,270,5.8,-999.0,81,-99.99,,,0.00,Acu-Link.com,2013-02-03 13:44:00,
2013-02-03 08:59:00,14.4,9.9,29.74,West,270,4.2,-999.0,82,-99.99,,,0.00,Acu-Link.com,2013-02-03 13:59:00,
2013-02-03 09:15:00,14.7,10.2,29.73,WSW,247,8.3,-999.0,82,-99.99,,,0.00,Acu-Link.com,2013-02-03 14:15:00,
2013-02-03 09:30:00,15.3,10.8,29.73,WNW,292,6.3,-999.0,82,-99.99,,,0.00,Acu-Link.com,2013-02-03 14:30:00,
2013-02-03 09:45:00,15.4,10.6,29.73,West,270,4.2,-999.0,81,-99.99,,,0.00,Acu-Link.com,2013-02-03 14:45:00,
2013-02-03 10:01:00,16.2,11.1,29.73,WNW,292,5.3,-999.0,80,-99.99,,,0.00,Acu-Link.com,2013-02-03 15:01:00,
2013-02-03 10:16:00,16.9,11.8,29.73,West,270,6.3,-999.0,80,-99.99,,,0.00,Acu-Link.com,2013-02-03 15:16:00,
2013-02-03 10:31:00,17.6,11.9,29.73,WSW,247,6.3,-999.0,78,-99.99,,,0.00,Acu-Link.com,2013-02-03 15:31:00,
2013-02-03 10:46:00,17.4,11.7,29.74,NW,315,6.3,-999.0,78,-99.99,,,0.00,Acu-Link.com,2013-02-03 15:46:00,
2013-02-03 11:02:00,18.3,12.6,29.73,NW,315,7.8,-999.0,78,-99.99,,,0.00,Acu-Link.com,2013-02-03 16:02:00,
2013-02-03 11:17:00,18.7,13.0,29.73,WSW,247,4.7,-999.0,78,-99.99,,,0.00,Acu-Link.com,2013-02-03 16:17:00,
2013-02-03 11:32:00,18.7,13.6,29.74,NW,315,8.3,-999.0,80,-99.99,,,0.00,Acu-Link.com,2013-02-03 16:32:00,
2013-02-03 11:48:00,19.0,13.6,29.74,West,270,7.3,-999.0,79,-99.99,,,0.00,Acu-Link.com,2013-02-03 16:48:00,
2013-02-03 12:03:00,20.1,14.4,29.74,WNW,292,7.3,-999.0,78,-99.99,,,0.00,Acu-Link.com,2013-02-03 17:03:00,
2013-02-03 12:18:00,20.3,14.6,29.74,WNW,292,8.9,-999.0,78,-99.99,,,0.00,Acu-Link.com,2013-02-03 17:18:00,
2013-02-03 12:34:00,19.6,14.2,29.75,West,270,8.9,-999.0,79,-99.99,,,0.00,Acu-Link.com,2013-02-03 17:34:00,
2013-02-03 12:49:00,19.9,14.7,29.74,WSW,247,8.9,-999.0,80,-99.99,,,0.00,Acu-Link.com,2013-02-03 17:49:00,
2013-02-03 13:04:00,20.3,15.4,29.74,South,180,4.7,-999.0,81,-99.99,,,0.00,Acu-Link.com,2013-02-03 18:04:00,
2013-02-03 13:19:00,20.8,15.6,29.74,West,270,13.0,-999.0,80,-99.99,,,0.00,Acu-Link.com,2013-02-03 18:19:00,
2013-02-03 13:35:00,21.2,16.6,29.75,WSW,247,10.4,-999.0,82,-99.99,,,0.00,Acu-Link.com,2013-02-03 18:35:00,
2013-02-03 13:50:00,21.2,16.6,29.75,WSW,247,11.9,-999.0,82,-99.99,,,0.00,Acu-Link.com,2013-02-03 18:50:00,
2013-02-03 14:05:00,21.7,17.1,29.75,WSW,247,7.3,-999.0,82,-99.99,,,0.00,Acu-Link.com,2013-02-03 19:05:00,
2013-02-03 14:20:00,21.6,16.4,29.75,WSW,247,7.8,-999.0,80,-99.99,,,0.00,Acu-Link.com,2013-02-03 19:20:00,
2013-02-03 14:36:00,22.3,17.1,29.75,NE,45,8.3,-999.0,80,-99.99,,,0.00,Acu-Link.com,2013-02-03 19:36:00,
2013-02-03 14:51:00,22.3,16.8,29.75,NW,315,9.9,-999.0,79,-99.99,,,0.00,Acu-Link.com,2013-02-03 19:51:00,
2013-02-03 15:06:00,23.5,17.7,29.76,SW,225,8.9,-999.0,78,-99.99,,,0.00,Acu-Link.com,2013-02-03 20:06:00,
2013-02-03 15:21:00,23.2,17.1,29.76,WNW,292,15.5,-999.0,77,-99.99,,,0.00,Acu-Link.com,2013-02-03 20:21:00,
2013-02-03 15:36:00,23.0,17.5,29.78,WNW,292,7.8,-999.0,79,-99.99,,,0.00,Acu-Link.com,2013-02-03 20:36:00,
2013-02-03 15:52:00,22.5,17.9,29.78,WNW,292,16.1,-999.0,82,-99.99,,,0.00,Acu-Link.com,2013-02-03 20:52:00,
2013-02-03 16:07:00,24.1,16.7,29.78,WNW,292,17.6,-999.0,73,-99.99,,,0.00,Acu-Link.com,2013-02-03 21:07:00,
2013-02-03 16:22:00,22.8,16.7,29.79,WNW,292,14.0,-999.0,77,-99.99,,,0.00,Acu-Link.com,2013-02-03 21:22:00,
2013-02-03 16:38:00,23.4,18.7,29.80,WNW,292,8.9,-999.0,82,-99.99,,,0.00,Acu-Link.com,2013-02-03 21:38:00,
2013-02-03 16:53:00,22.8,16.7,29.80,WNW,292,14.5,-999.0,77,-99.99,,,0.00,Acu-Link.com,2013-02-03 21:53:00,
2013-02-03 17:08:00,22.3,17.1,29.80,NW,315,14.5,-999.0,80,-99.99,,,0.00,Acu-Link.com,2013-02-03 22:08:00,
2013-02-03 17:23:00,22.3,17.7,29.81,WNW,292,13.5,-999.0,82,-99.99,,,0.00,Acu-Link.com,2013-02-03 22:23:00,
2013-02-03 17:38:00,22.6,15.3,29.81,West,270,9.9,-999.0,73,-99.99,,,0.00,Acu-Link.com,2013-02-03 22:38:00,
2013-02-03 17:53:00,21.9,15.2,29.81,West,270,8.9,-999.0,75,-99.99,,,0.00,Acu-Link.com,2013-02-03 22:53:00,
2013-02-03 18:09:00,21.4,14.7,29.81,WSW,247,10.9,-999.0,75,-99.99,,,0.00,Acu-Link.com,2013-02-03 23:09:00,
2013-02-03 18:24:00,21.0,14.6,29.81,West,270,7.8,-999.0,76,-99.99,,,0.00,Acu-Link.com,2013-02-03 23:24:00,
2013-02-03 18:39:00,20.7,14.7,29.81,West,270,7.3,-999.0,77,-99.99,,,0.00,Acu-Link.com,2013-02-03 23:39:00,
2013-02-03 18:54:00,20.5,14.8,29.81,WNW,292,5.8,-999.0,78,-99.99,,,0.00,Acu-Link.com,2013-02-03 23:54:00,
2013-02-03 19:09:00,20.5,14.8,29.82,West,270,8.9,-999.0,78,-99.99,,,0.00,Acu-Link.com,2013-02-04 00:09:00,
2013-02-03 19:25:00,20.1,14.1,29.83,WSW,247,6.8,-999.0,77,-99.99,,,0.00,Acu-Link.com,2013-02-04 00:25:00,
2013-02-03 19:40:00,19.6,13.9,29.84,WSW,247,4.2,-999.0,78,-99.99,,,0.00,Acu-Link.com,2013-02-04 00:40:00,
2013-02-03 19:55:00,19.4,13.7,29.82,SW,225,2.7,-999.0,78,-99.99,,,0.00,Acu-Link.com,2013-02-04 00:55:00,
2013-02-03 20:11:00,18.9,13.5,29.82,SW,225,4.7,-999.0,79,-99.99,,,0.00,Acu-Link.com,2013-02-04 01:11:00,
2013-02-03 20:26:00,18.5,13.4,29.82,SSW,202,4.7,-999.0,80,-99.99,,,0.00,Acu-Link.com,2013-02-04 01:26:00,
2013-02-03 20:41:00,18.3,13.2,29.82,SSW,202,4.2,-999.0,80,-99.99,,,0.00,Acu-Link.com,2013-02-04 01:41:00,
2013-02-03 20:57:00,18.9,13.8,29.81,SSW,202,6.3,-999.0,80,-99.99,,,0.00,Acu-Link.com,2013-02-04 01:57:00,
2013-02-03 21:12:00,19.2,13.5,29.82,SW,225,7.3,-999.0,78,-99.99,,,0.00,Acu-Link.com,2013-02-04 02:12:00,
2013-02-03 21:27:00,19.8,13.8,29.83,SW,225,6.8,-999.0,77,-99.99,,,0.00,Acu-Link.com,2013-02-04 02:27:00,
2013-02-03 21:43:00,19.6,13.6,29.82,SW,225,5.3,-999.0,77,-99.99,,,0.00,Acu-Link.com,2013-02-04 02:43:00,
2013-02-03 21:58:00,19.6,13.6,29.84,SSW,202,5.8,-999.0,77,-99.99,,,0.00,Acu-Link.com,2013-02-04 02:58:00,
2013-02-03 22:13:00,19.9,13.6,29.83,WSW,247,6.8,-999.0,76,-99.99,,,0.00,Acu-Link.com,2013-02-04 03:13:00,
2013-02-03 22:51:00,19.8,13.2,29.83,South,180,6.3,-999.0,75,-99.99,,,0.00,Acu-Link.com,2013-02-04 03:51:00,
2013-02-03 23:06:00,20.1,13.5,29.84,SW,225,7.8,-999.0,75,-99.99,,,0.00,Acu-Link.com,2013-02-04 04:06:00,
2013-02-03 23:21:00,20.8,13.8,29.83,South,180,13.0,-999.0,74,-99.99,,,0.00,Acu-Link.com,2013-02-04 04:21:00,
2013-02-03 23:37:00,20.8,13.5,29.83,SW,225,4.7,-999.0,73,-99.99,,,0.00,Acu-Link.com,2013-02-04 04:37:00,
2013-02-03 23:52:00,20.7,13.4,29.83,SSW,202,7.3,-999.0,73,-99.99,,,0.00,Acu-Link.com,2013-02-04 04:52:00,